GLO1782 SBBR-SBEG

Flight info

Callsign GLO1782
Flight time N/A
Altitude 34000
Route UGUGA UM409 NEMEL DCT IRUMO
Aircraft B738/M-SDE2E3FGHIRWXY/LB1

Departure

Time N/A
Airport Presidente Juscelino Kubitschek International Airport (SBBR)

Arrival

Time 2026-05-08 22:50
Airport Eduardo Gomes International Airport (SBEG)
Time Latitude Longitude Altitude Speed Heading
2026-05-08 21:53 -7.04982 -55.92859 33893 ft 432 kts 306°
2026-05-08 21:53 -7.03198 -55.95319 33896 ft 433 kts 305°
2026-05-08 21:53 -6.99636 -56.00230 33897 ft 434 kts 305°
2026-05-08 21:54 -6.96047 -56.05178 33897 ft 434 kts 306°
2026-05-08 21:54 -6.92479 -56.10095 33892 ft 433 kts 306°
2026-05-08 21:55 -6.88931 -56.14985 33890 ft 432 kts 305°
2026-05-08 21:56 -6.83583 -56.22352 33886 ft 433 kts 305°
2026-05-08 21:56 -6.80003 -56.27281 33886 ft 433 kts 305°
2026-05-08 21:57 -6.76446 -56.32178 33887 ft 434 kts 305°
2026-05-08 21:57 -6.72865 -56.37106 33880 ft 434 kts 305°
2026-05-08 21:58 -6.69277 -56.42043 33873 ft 434 kts 305°
2026-05-08 21:58 -6.65725 -56.46928 33875 ft 434 kts 305°
2026-05-08 21:59 -6.62170 -56.51815 33874 ft 434 kts 305°
2026-05-08 21:59 -6.58596 -56.56728 33867 ft 434 kts 305°
2026-05-08 22:00 -6.55019 -56.61643 33861 ft 434 kts 305°
2026-05-08 22:00 -6.51475 -56.66511 33857 ft 433 kts 305°
2026-05-08 22:01 -6.47898 -56.71424 33854 ft 434 kts 305°
2026-05-08 22:01 -6.44327 -56.76328 33852 ft 434 kts 305°
2026-05-08 22:02 -6.40762 -56.81221 33855 ft 435 kts 305°
2026-05-08 22:02 -6.37181 -56.86136 33858 ft 434 kts 305°
2026-05-08 22:03 -6.33605 -56.91042 33863 ft 435 kts 305°
2026-05-08 22:03 -6.30030 -56.95944 33868 ft 434 kts 305°
2026-05-08 22:04 -6.26467 -57.00830 33875 ft 434 kts 305°
2026-05-08 22:04 -6.22908 -57.05709 33881 ft 434 kts 305°
2026-05-08 22:05 -6.19340 -57.10599 33885 ft 435 kts 305°
2026-05-08 22:05 -6.15754 -57.15511 33884 ft 434 kts 305°
2026-05-08 22:06 -6.12192 -57.20390 33885 ft 435 kts 305°
2026-05-08 22:06 -6.08589 -57.25324 33888 ft 435 kts 305°
2026-05-08 22:07 -6.04997 -57.30241 33889 ft 436 kts 305°
2026-05-08 22:07 -6.01417 -57.35142 33890 ft 435 kts 305°
2026-05-08 22:08 -5.97837 -57.40040 33888 ft 436 kts 305°
2026-05-08 22:08 -5.94249 -57.44948 33884 ft 436 kts 305°
2026-05-08 22:09 -5.90673 -57.49839 33881 ft 435 kts 305°
2026-05-08 22:09 -5.87080 -57.54753 33879 ft 436 kts 305°
2026-05-08 22:10 -5.83473 -57.59683 33876 ft 436 kts 305°
2026-05-08 22:10 -5.79890 -57.64579 33871 ft 435 kts 305°
2026-05-08 22:11 -5.76307 -57.69474 33869 ft 435 kts 305°
2026-05-08 22:11 -5.72703 -57.74397 33868 ft 435 kts 305°
2026-05-08 22:12 -5.69133 -57.79272 33870 ft 434 kts 305°
2026-05-08 22:12 -5.65557 -57.84154 33870 ft 436 kts 305°
2026-05-08 22:13 -5.61955 -57.89073 33871 ft 436 kts 305°
2026-05-08 22:13 -5.58374 -57.93959 33862 ft 436 kts 305°
2026-05-08 22:14 -5.54760 -57.98888 33854 ft 437 kts 305°
2026-05-08 22:14 -5.51182 -58.03768 33855 ft 436 kts 305°
2026-05-08 22:15 -5.47568 -58.08697 33853 ft 436 kts 305°
2026-05-08 22:15 -5.43982 -58.13586 33855 ft 436 kts 305°
2026-05-08 22:16 -5.40395 -58.18475 33851 ft 436 kts 305°
2026-05-08 22:16 -5.36784 -58.23396 33853 ft 436 kts 305°
2026-05-08 22:17 -5.33185 -58.28299 33854 ft 437 kts 305°
2026-05-08 22:17 -5.29593 -58.33191 33851 ft 437 kts 305°
2026-05-08 22:18 -5.25977 -58.38114 33851 ft 437 kts 305°
2026-05-08 22:18 -5.22352 -58.43051 33855 ft 436 kts 305°
2026-05-08 22:19 -5.18754 -58.47947 33854 ft 435 kts 305°
2026-05-08 22:19 -5.15142 -58.52862 33848 ft 437 kts 305°
2026-05-08 22:20 -5.11530 -58.57774 33853 ft 436 kts 305°
2026-05-08 22:20 -5.07931 -58.62671 33852 ft 437 kts 305°
2026-05-08 22:21 -5.04294 -58.67617 33850 ft 437 kts 305°
2026-05-08 22:21 -5.00668 -58.72549 33855 ft 437 kts 305°
2026-05-08 22:22 -4.97060 -58.77455 33866 ft 437 kts 305°
2026-05-08 22:22 -4.93456 -58.82351 33872 ft 435 kts 305°
2026-05-08 22:23 -4.89866 -58.87229 33872 ft 433 kts 304°
2026-05-08 22:23 -4.86252 -58.92140 33871 ft 434 kts 304°
2026-05-08 22:24 -4.82657 -58.97024 33873 ft 434 kts 304°
2026-05-08 22:24 -4.79070 -59.01894 33873 ft 435 kts 305°
2026-05-08 22:25 -4.75463 -59.06791 33874 ft 435 kts 305°
2026-05-08 22:25 -4.71855 -59.11688 33870 ft 434 kts 304°
2026-05-08 22:26 -4.68265 -59.16561 33870 ft 434 kts 304°
2026-05-08 22:26 -4.64661 -59.21452 33868 ft 435 kts 304°
2026-05-08 22:27 -4.61062 -59.26334 33866 ft 435 kts 304°
2026-05-08 22:27 -4.57451 -59.31230 33864 ft 435 kts 304°
2026-05-08 22:28 -4.53862 -59.36099 33866 ft 435 kts 304°
2026-05-08 22:28 -4.50248 -59.40998 33859 ft 436 kts 304°
2026-05-08 22:29 -4.46657 -59.45864 33859 ft 435 kts 305°
2026-05-08 22:29 -4.44831 -59.48340 33635 ft 439 kts 304°
2026-05-08 22:29 -4.43025 -59.50788 33198 ft 438 kts 305°
2026-05-08 22:29 -4.41215 -59.53240 32768 ft 436 kts 305°
2026-05-08 22:30 -4.39421 -59.55671 32368 ft 436 kts 305°
2026-05-08 22:30 -4.37600 -59.58138 31977 ft 439 kts 305°
2026-05-08 22:30 -4.35769 -59.60619 31587 ft 442 kts 305°
2026-05-08 22:30 -4.33950 -59.63084 31200 ft 444 kts 305°
2026-05-08 22:31 -4.32111 -59.65573 30643 ft 445 kts 305°
2026-05-08 22:31 -4.30284 -59.68047 29947 ft 435 kts 305°
2026-05-08 22:31 -4.28519 -59.70436 29378 ft 421 kts 305°
2026-05-08 22:31 -4.26805 -59.72755 28674 ft 413 kts 305°
2026-05-08 22:32 -4.25114 -59.75047 27977 ft 410 kts 306°
2026-05-08 22:32 -4.23404 -59.77365 27383 ft 409 kts 306°
2026-05-08 22:32 -4.21733 -59.79629 26853 ft 407 kts 306°
2026-05-08 22:32 -4.20047 -59.81914 26349 ft 404 kts 306°
2026-05-08 22:33 -4.18398 -59.84148 25774 ft 403 kts 306°
2026-05-08 22:33 -4.16715 -59.86427 25226 ft 402 kts 307°
2026-05-08 22:33 -4.15077 -59.88644 24697 ft 400 kts 307°
2026-05-08 22:33 -4.13373 -59.90863 24168 ft 398 kts 310°
2026-05-08 22:34 -4.11476 -59.92858 23624 ft 395 kts 321°
2026-05-08 22:34 -4.09204 -59.94377 23128 ft 390 kts 335°
2026-05-08 22:34 -4.06722 -59.95379 22663 ft 385 kts 345°
2026-05-08 22:34 -4.04129 -59.96008 22201 ft 380 kts 352°
2026-05-08 22:35 -4.01516 -59.96402 21762 ft 376 kts 355°
2026-05-08 22:35 -3.98929 -59.96673 21272 ft 374 kts 357°
2026-05-08 22:35 -3.96305 -59.96900 20816 ft 371 kts 358°
2026-05-08 22:35 -3.93746 -59.97109 20366 ft 368 kts 358°
2026-05-08 22:36 -3.91205 -59.97318 19951 ft 364 kts 358°
2026-05-08 22:36 -3.88681 -59.97533 19473 ft 363 kts 358°
2026-05-08 22:36 -3.86146 -59.97757 19034 ft 360 kts 357°
2026-05-08 22:36 -3.83667 -59.97981 18592 ft 357 kts 357°
2026-05-08 22:37 -3.81170 -59.98210 18155 ft 354 kts 357°
2026-05-08 22:37 -3.78726 -59.98437 17704 ft 352 kts 357°
2026-05-08 22:37 -3.76379 -59.98656 17294 ft 349 kts 357°
2026-05-08 22:37 -3.73956 -59.98885 16854 ft 346 kts 356°
2026-05-08 22:38 -3.71570 -59.99213 16396 ft 346 kts 352°
2026-05-08 22:38 -3.69246 -59.99803 15978 ft 344 kts 344°
2026-05-08 22:38 -3.66977 -60.00635 15550 ft 343 kts 340°
2026-05-08 22:38 -3.64797 -60.01566 15115 ft 341 kts 338°
2026-05-08 22:39 -3.62632 -60.02538 14680 ft 339 kts 338°
2026-05-08 22:39 -3.60484 -60.03505 14280 ft 336 kts 338°
2026-05-08 22:39 -3.58347 -60.04453 13847 ft 333 kts 338°
2026-05-08 22:39 -3.56215 -60.05383 13406 ft 332 kts 338°
2026-05-08 22:40 -3.54111 -60.06294 12983 ft 329 kts 338°
2026-05-08 22:40 -3.51976 -60.07213 12544 ft 327 kts 339°
2026-05-08 22:40 -3.49887 -60.08111 12225 ft 321 kts 339°
2026-05-08 22:40 -3.47877 -60.08977 12110 ft 309 kts 339°
2026-05-08 22:41 -3.45946 -60.09810 11986 ft 297 kts 339°
2026-05-08 22:41 -3.44045 -60.10630 11693 ft 293 kts 339°
2026-05-08 22:41 -3.42160 -60.11441 11331 ft 291 kts 339°
2026-05-08 22:41 -3.40298 -60.12242 10949 ft 289 kts 339°
2026-05-08 22:42 -3.38450 -60.13037 10562 ft 290 kts 339°
2026-05-08 22:42 -3.36562 -60.13849 10000 ft 295 kts 339°
2026-05-08 22:42 -3.34659 -60.14666 9442 ft 300 kts 339°
2026-05-08 22:42 -3.32721 -60.15499 8908 ft 304 kts 339°
2026-05-08 22:43 -3.30778 -60.16336 8346 ft 307 kts 339°
2026-05-08 22:43 -3.28834 -60.17164 7823 ft 298 kts 340°
2026-05-08 22:43 -3.26945 -60.17913 7414 ft 287 kts 342°
2026-05-08 22:43 -3.25181 -60.18578 7046 ft 278 kts 342°
2026-05-08 22:44 -3.23381 -60.19250 6637 ft 271 kts 343°
2026-05-08 22:44 -3.21622 -60.19909 6218 ft 268 kts 343°
2026-05-08 22:44 -3.19864 -60.20573 5812 ft 268 kts 343°
2026-05-08 22:44 -3.18123 -60.21235 5410 ft 267 kts 342°
2026-05-08 22:45 -3.16388 -60.21898 5015 ft 266 kts 342°
2026-05-08 22:45 -3.14673 -60.22547 4730 ft 261 kts 344°
2026-05-08 22:45 -3.12953 -60.22955 4679 ft 237 kts 359°
2026-05-08 22:45 -3.11339 -60.22985 4499 ft 232 kts
2026-05-08 22:46 -3.09728 -60.22915 4227 ft 231 kts
2026-05-08 22:46 -3.08105 -60.22865 3952 ft 230 kts
2026-05-08 22:46 -3.06515 -60.22820 3744 ft 225 kts
2026-05-08 22:46 -3.05025 -60.22485 3542 ft 218 kts 31°
2026-05-08 22:47 -3.03990 -60.21421 3315 ft 214 kts 66°
2026-05-08 22:47 -3.03699 -60.19966 2932 ft 219 kts 91°
2026-05-08 22:47 -3.03844 -60.18436 2582 ft 220 kts 94°
2026-05-08 22:47 -3.03883 -60.16917 2284 ft 219 kts 88°
2026-05-08 22:48 -3.03831 -60.15392 1991 ft 217 kts 88°
2026-05-08 22:48 -3.03840 -60.13927 1716 ft 203 kts 90°
2026-05-08 22:48 -3.03859 -60.12571 1463 ft 190 kts 89°
2026-05-08 22:48 -3.03848 -60.11279 1227 ft 178 kts 89°
2026-05-08 22:49 -3.03853 -60.10087 1004 ft 164 kts 90°
2026-05-08 22:49 -3.03855 -60.07985 596 ft 145 kts 90°
2026-05-08 22:49 -3.03856 -60.06966 389 ft 147 kts 90°
2026-05-08 22:50 -3.03856 -60.05929 253 ft 143 kts 91°
2026-05-08 22:50 -3.03865 -60.04997 245 ft 126 kts 89°
2026-05-08 22:50 -3.03863 -60.04168 247 ft 102 kts 88°
2026-05-08 22:50 -3.03872 -60.03671 244 ft 48 kts 58°
2026-05-08 22:51 -3.03650 -60.03635 235 ft 30 kts 275°
2026-05-08 22:51 -3.03692 -60.03768 237 ft 10 kts 262°
2026-05-08 22:51 -3.03673 -60.03892 238 ft 25 kts 284°
2026-05-08 22:51 -3.03631 -60.04034 239 ft 19 kts 286°
2026-05-08 22:52 -3.03593 -60.04173 239 ft 21 kts 284°
2026-05-08 22:52 -3.03551 -60.04270 239 ft 11 kts 298°
2026-05-08 22:52 -3.03503 -60.04326 239 ft 10 kts 323°
2026-05-08 22:52 -3.03445 -60.04358 240 ft 8 kts 335°
2026-05-08 22:53 -3.03397 -60.04376 241 ft 6 kts 343°
2026-05-08 22:53 -3.03362 -60.04385 242 ft 4 kts 340°
2026-05-08 22:53 -3.03342 -60.04401 242 ft 5 kts 307°
2026-05-08 22:53 -3.03332 -60.04483 242 ft 13 kts 297°
2026-05-08 22:54 -3.03282 -60.04497 244 ft 0 kts 346°
2026-05-08 22:54 -3.03268 -60.04500 245 ft 0 kts 347°